Simultaneous Nadir Overpasses (SNOs) Predictions

Prediction of SNOs between AQUA and METOP-A Satellite Orbit:

Table of predicted SNOs for the next 14.0 days since TLE Epoch: 11/21/2015
Index Date (AQUA) Time (AQUA) Lat,Lon (AQUA) SZA (AQUA ) Date (METOP-A) Time (METOP-A) Lat,Lon (METOP-A) SZA (METOP-A ) Distance(km) Time Diff (sec)
1 11/21/2015 20:21:10 73.84,-131.12 93.73 11/21/2015 20:19:58 73.84,-131.14 93.74 0.37 72
2 11/21/2015 21:10:37 -73.91, 36.35 86.19 11/21/2015 21:10:39 -73.90, 36.34 86.20 1.53 2
3 11/21/2015 22:00:06 73.99,-156.18 93.90 11/21/2015 22:01:17 73.97,-156.16 93.88 2.00 71
4 11/24/2015 15:55:28 73.86, -64.74 94.35 11/24/2015 15:54:23 73.84, -64.73 94.33 2.20 65
5 11/24/2015 16:44:55 -73.93, 102.74 85.58 11/24/2015 16:45:04 -73.91, 102.76 85.60 2.71 9
6 11/24/2015 17:34:27 74.16, -90.15 94.68 11/24/2015 17:35:38 74.17, -89.26 94.67 27.13 71
7 11/27/2015 11:29:45 73.86, 1.69 94.89 11/27/2015 11:28:48 73.84, 1.67 94.87 2.36 57
8 11/27/2015 12:19:12 -73.92, 169.19 85.04 11/27/2015 12:19:29 -73.90, 169.16 85.06 2.07 17
9 11/27/2015 13:08:50 74.47, -24.45 95.54 11/27/2015 13:09:57 74.46, -22.11 95.50 69.76 67
10 11/30/2015 07:04:01 73.88, 68.07 95.41 11/30/2015 07:03:11 73.88, 68.17 95.41 3.24 50
11 11/30/2015 07:53:28 -73.94,-124.42 84.53 11/30/2015 07:53:52 -73.95,-124.33 84.52 2.94 24
12 12/03/2015 02:38:17 73.88, 134.50 95.85 12/03/2015 02:37:36 73.86, 134.55 95.83 2.67 41
13 12/03/2015 03:27:44 -73.94, -57.98 84.09 12/03/2015 03:28:17 -73.93, -57.95 84.10 0.94 33




NCC Satellite Simultaneous Nadir Overpasses (SNOs) Prediction Service
